Вернуться в каталог

OV1-19 R/B

АктивенHEO
NORAD 3827·ROCKET BODY·🇺🇸 United States

Запущен Mar 18, 1969 с Vandenberg Space Force Base

Loading…

Ближайшие Пролёты (ближайшие 24 часа)

TLE

СвежийSource: Space-Track

Эпоха: Sep 14, 2026, 05:45 UTC

1 03827U 69025E   26257.23959505  .00000744  00000-0  38792-3 0  9999
2 03827 104.7426 198.0613 2609887  53.1243 328.1728  9.70040212  8725

Отслеживайте OV1-19 R/B в реальном времени с AllMySat

Download on the App Store